Time,TemperatureF,DewpointF,PressureIn,WindDirection,WindDirectionDegrees,WindSpeedMPH,WindSpeedGustMPH,Humidity,HourlyPrecipIn,Conditions,Clouds,dailyrainin,SoftwareType,DateUTC
2013-01-03 00:00:00,26.9,16.0,30.23,NW,318,1.0,1.0,63,0.00,,,0.00,Wunderground v.1.15,2013-01-03 05:00:00,
2013-01-03 00:05:00,26.5,16.3,30.23,NW,318,1.0,1.0,65,0.00,,,0.00,Wunderground v.1.15,2013-01-03 05:05:00,
2013-01-03 00:10:00,26.2,14.9,30.23,NW,318,0.0,0.0,62,0.00,,,0.00,Wunderground v.1.15,2013-01-03 05:10:00,
2013-01-03 00:15:00,26.1,15.2,30.22,NW,318,0.0,0.0,63,0.00,,,0.00,Wunderground v.1.15,2013-01-03 05:15:00,
2013-01-03 00:20:00,25.9,16.1,30.22,NW,318,0.0,0.0,66,0.00,,,0.00,Wunderground v.1.15,2013-01-03 05:20:00,
2013-01-03 00:25:00,25.8,15.3,30.22,NNW,338,1.0,2.0,64,0.00,,,0.00,Wunderground v.1.15,2013-01-03 05:25:00,
2013-01-03 00:35:00,26.8,15.5,30.22,North,355,1.0,1.0,62,0.00,,,0.00,Wunderground v.1.15,2013-01-03 05:35:00,
2013-01-03 00:40:00,26.9,15.2,30.22,North,355,1.0,2.0,61,0.00,,,0.00,Wunderground v.1.15,2013-01-03 05:40:00,
2013-01-03 00:45:00,27.6,15.1,30.21,ENE,65,2.0,3.0,59,0.00,,,0.00,Wunderground v.1.15,2013-01-03 05:45:00,
2013-01-03 00:50:00,27.8,15.3,30.21,NE,36,3.0,3.0,59,0.00,,,0.00,Wunderground v.1.15,2013-01-03 05:50:00,
2013-01-03 00:55:00,27.5,15.4,30.21,ENE,67,3.0,4.0,60,0.00,,,0.00,Wunderground v.1.15,2013-01-03 05:55:00,
2013-01-03 01:00:00,27.1,14.7,30.22,ENE,75,3.0,3.0,59,0.00,,,0.00,Wunderground v.1.15,2013-01-03 06:00:00,
2013-01-03 01:10:00,26.7,15.0,30.21,SSE,163,0.0,4.0,61,0.00,,,0.00,Wunderground v.1.15,2013-01-03 06:10:00,
2013-01-03 01:15:00,26.7,14.7,30.21,ENE,59,1.0,4.0,60,0.00,,,0.00,Wunderground v.1.15,2013-01-03 06:15:00,
2013-01-03 01:20:00,26.5,14.9,30.21,North,360,1.0,1.0,61,0.00,,,0.00,Wunderground v.1.15,2013-01-03 06:20:00,
2013-01-03 01:25:00,26.5,15.2,30.21,North,360,0.0,1.0,62,0.00,,,0.00,Wunderground v.1.15,2013-01-03 06:25:00,
2013-01-03 01:35:00,26.1,15.9,30.21,North,360,0.0,1.0,65,0.00,,,0.00,Wunderground v.1.15,2013-01-03 06:35:00,
2013-01-03 01:40:00,25.9,15.0,30.21,North,360,0.0,0.0,63,0.00,,,0.00,Wunderground v.1.15,2013-01-03 06:40:00,
2013-01-03 01:45:00,25.8,14.9,30.22,North,360,0.0,0.0,63,0.00,,,0.00,Wunderground v.1.15,2013-01-03 06:45:00,
2013-01-03 01:50:00,25.6,15.5,30.21,North,360,0.0,0.0,65,0.00,,,0.00,Wunderground v.1.15,2013-01-03 06:50:00,
2013-01-03 01:55:00,25.4,15.6,30.21,North,360,0.0,0.0,66,0.00,,,0.00,Wunderground v.1.15,2013-01-03 06:55:00,
2013-01-03 02:00:00,25.3,16.2,30.22,North,360,0.0,0.0,68,0.00,,,0.00,Wunderground v.1.15,2013-01-03 07:00:00,
2013-01-03 02:10:00,25.1,16.4,30.21,North,360,0.0,0.0,69,0.00,,,0.00,Wunderground v.1.15,2013-01-03 07:10:00,
2013-01-03 02:15:00,25.1,15.7,30.21,North,360,0.0,0.0,67,0.00,,,0.00,Wunderground v.1.15,2013-01-03 07:15:00,
2013-01-03 02:20:00,25.1,16.0,30.21,North,360,0.0,0.0,68,0.00,,,0.00,Wunderground v.1.15,2013-01-03 07:20:00,
2013-01-03 02:25:00,24.9,16.2,30.22,North,360,0.0,0.0,69,0.00,,,0.00,Wunderground v.1.15,2013-01-03 07:25:00,
2013-01-03 02:30:00,24.8,17.1,30.22,North,360,0.0,0.0,72,0.00,,,0.00,Wunderground v.1.15,2013-01-03 07:30:00,
2013-01-03 02:40:00,24.4,16.3,30.22,North,360,0.0,0.0,71,0.00,,,0.00,Wunderground v.1.15,2013-01-03 07:40:00,
2013-01-03 02:45:00,24.3,16.6,30.22,North,360,0.0,0.0,72,0.00,,,0.00,Wunderground v.1.15,2013-01-03 07:45:00,
2013-01-03 02:50:00,24.2,16.8,30.22,North,360,0.0,0.0,73,0.00,,,0.00,Wunderground v.1.15,2013-01-03 07:50:00,
2013-01-03 02:55:00,24.2,16.8,30.22,North,360,0.0,0.0,73,0.00,,,0.00,Wunderground v.1.15,2013-01-03 07:55:00,
2013-01-03 03:00:00,24.1,17.3,30.22,North,360,0.0,0.0,75,0.00,,,0.00,Wunderground v.1.15,2013-01-03 08:00:00,
2013-01-03 03:10:00,23.9,16.8,30.22,North,360,0.0,0.0,74,0.00,,,0.00,Wunderground v.1.15,2013-01-03 08:10:00,
2013-01-03 03:15:00,23.8,16.4,30.22,North,360,0.0,0.0,73,0.00,,,0.00,Wunderground v.1.15,2013-01-03 08:15:00,
2013-01-03 03:20:00,23.6,16.5,30.22,North,360,0.0,0.0,74,0.00,,,0.00,Wunderground v.1.15,2013-01-03 08:20:00,
2013-01-03 03:25:00,23.5,17.0,30.22,North,360,0.0,0.0,76,0.00,,,0.00,Wunderground v.1.15,2013-01-03 08:25:00,
2013-01-03 03:30:00,23.4,16.6,30.22,North,360,0.0,0.0,75,0.00,,,0.00,Wunderground v.1.15,2013-01-03 08:30:00,
2013-01-03 03:35:00,23.2,17.1,30.22,North,360,0.0,0.0,77,0.00,,,0.00,Wunderground v.1.15,2013-01-03 08:35:00,
2013-01-03 03:45:00,22.9,17.4,30.21,North,360,0.0,0.0,79,0.00,,,0.00,Wunderground v.1.15,2013-01-03 08:45:00,
2013-01-03 03:50:00,22.6,17.4,30.22,North,360,0.0,0.0,80,0.00,,,0.00,Wunderground v.1.15,2013-01-03 08:50:00,
2013-01-03 03:55:00,22.4,17.2,30.22,North,360,0.0,2.0,80,0.00,,,0.00,Wunderground v.1.15,2013-01-03 08:55:00,
2013-01-03 04:00:00,22.3,17.1,30.22,North,360,0.0,0.0,80,0.00,,,0.00,Wunderground v.1.15,2013-01-03 09:00:00,
2013-01-03 04:10:00,21.9,17.0,30.22,North,360,0.0,0.0,81,0.00,,,0.00,Wunderground v.1.15,2013-01-03 09:10:00,
2013-01-03 04:20:00,21.6,17.0,30.22,North,360,0.0,0.0,82,0.00,,,0.00,Wunderground v.1.15,2013-01-03 09:20:00,
2013-01-03 04:25:00,21.4,17.0,30.22,North,360,0.0,0.0,83,0.00,,,0.00,Wunderground v.1.15,2013-01-03 09:25:00,
2013-01-03 04:30:00,21.2,16.6,30.21,North,360,0.0,0.0,82,0.00,,,0.00,Wunderground v.1.15,2013-01-03 09:30:00,
2013-01-03 04:35:00,21.1,16.7,30.21,North,360,0.0,0.0,83,0.00,,,0.00,Wunderground v.1.15,2013-01-03 09:35:00,
2013-01-03 04:40:00,21.0,16.4,30.21,North,360,0.0,0.0,82,0.00,,,0.00,Wunderground v.1.15,2013-01-03 09:40:00,
2013-01-03 04:50:00,20.8,16.5,30.21,North,360,0.0,0.0,83,0.00,,,0.00,Wunderground v.1.15,2013-01-03 09:50:00,
2013-01-03 04:55:00,20.7,16.4,30.22,North,360,0.0,0.0,83,0.00,,,0.00,Wunderground v.1.15,2013-01-03 09:55:00,
2013-01-03 05:00:00,20.7,16.6,30.22,North,360,0.0,0.0,84,0.00,,,0.00,Wunderground v.1.15,2013-01-03 10:00:00,
2013-01-03 05:10:00,20.8,16.7,30.21,North,360,0.0,0.0,84,0.00,,,0.00,Wunderground v.1.15,2013-01-03 10:10:00,
2013-01-03 05:15:00,20.7,16.6,30.21,North,360,0.0,0.0,84,0.00,,,0.00,Wunderground v.1.15,2013-01-03 10:15:00,
2013-01-03 05:20:00,20.7,16.6,30.21,North,360,0.0,0.0,84,0.00,,,0.00,Wunderground v.1.15,2013-01-03 10:20:00,
2013-01-03 05:25:00,20.7,16.9,30.22,North,360,0.0,0.0,85,0.00,,,0.00,Wunderground v.1.15,2013-01-03 10:25:00,
2013-01-03 05:30:00,20.5,16.7,30.21,North,360,0.0,2.0,85,0.00,,,0.00,Wunderground v.1.15,2013-01-03 10:30:00,
2013-01-03 05:40:00,20.3,16.5,30.22,North,360,0.0,0.0,85,0.00,,,0.00,Wunderground v.1.15,2013-01-03 10:40:00,
2013-01-03 05:45:00,20.1,16.3,30.22,North,360,0.0,0.0,85,0.00,,,0.00,Wunderground v.1.15,2013-01-03 10:45:00,
2013-01-03 05:50:00,20.0,16.2,30.22,North,360,0.0,0.0,85,0.00,,,0.00,Wunderground v.1.15,2013-01-03 10:50:00,
2013-01-03 05:55:00,19.8,16.3,30.22,North,360,0.0,0.0,86,0.00,,,0.00,Wunderground v.1.15,2013-01-03 10:55:00,
2013-01-03 06:00:00,19.7,16.2,30.22,North,360,0.0,0.0,86,0.00,,,0.00,Wunderground v.1.15,2013-01-03 11:00:00,
2013-01-03 06:10:00,19.4,15.9,30.22,North,360,0.0,0.0,86,0.00,,,0.00,Wunderground v.1.15,2013-01-03 11:10:00,
2013-01-03 06:15:00,19.2,15.7,30.22,North,360,0.0,0.0,86,0.00,,,0.00,Wunderground v.1.15,2013-01-03 11:15:00,
2013-01-03 06:25:00,18.9,15.7,30.22,North,360,0.0,0.0,87,0.00,,,0.00,Wunderground v.1.15,2013-01-03 11:25:00,
2013-01-03 06:30:00,18.7,15.5,30.23,North,360,0.0,0.0,87,0.00,,,0.00,Wunderground v.1.15,2013-01-03 11:30:00,
2013-01-03 06:35:00,18.6,15.4,30.23,North,360,0.0,0.0,87,0.00,,,0.00,Wunderground v.1.15,2013-01-03 11:35:00,
2013-01-03 06:40:00,18.5,15.3,30.23,North,360,0.0,0.0,87,0.00,,,0.00,Wunderground v.1.15,2013-01-03 11:40:00,
2013-01-03 06:45:00,18.5,15.3,30.22,North,360,0.0,0.0,87,0.00,,,0.00,Wunderground v.1.15,2013-01-03 11:45:00,
2013-01-03 06:50:00,18.3,15.1,30.22,North,360,0.0,0.0,87,0.00,,,0.00,Wunderground v.1.15,2013-01-03 11:50:00,
2013-01-03 07:00:00,18.2,15.0,30.22,North,360,0.0,0.0,87,0.00,,,0.00,Wunderground v.1.15,2013-01-03 12:00:00,
2013-01-03 07:10:00,18.2,15.0,30.22,North,360,0.0,0.0,87,0.00,,,0.00,Wunderground v.1.15,2013-01-03 12:10:00,
2013-01-03 07:15:00,18.2,15.0,30.22,North,360,0.0,0.0,87,0.00,,,0.00,Wunderground v.1.15,2013-01-03 12:15:00,
2013-01-03 07:20:00,18.0,14.8,30.22,North,360,0.0,0.0,87,0.00,,,0.00,Wunderground v.1.15,2013-01-03 12:20:00,
2013-01-03 07:30:00,17.7,14.8,30.23,North,360,0.0,0.0,88,0.00,,,0.00,Wunderground v.1.15,2013-01-03 12:30:00,
2013-01-03 07:35:00,17.6,14.7,30.23,North,360,0.0,0.0,88,0.00,,,0.00,Wunderground v.1.15,2013-01-03 12:35:00,
2013-01-03 07:40:00,17.5,14.6,30.22,North,360,0.0,0.0,88,0.00,,,0.00,Wunderground v.1.15,2013-01-03 12:40:00,
2013-01-03 07:45:00,17.6,14.9,30.23,North,360,0.0,0.0,89,0.00,,,0.00,Wunderground v.1.15,2013-01-03 12:45:00,
2013-01-03 07:50:00,17.5,14.8,30.23,North,360,0.0,0.0,89,0.00,,,0.00,Wunderground v.1.15,2013-01-03 12:50:00,
2013-01-03 07:55:00,17.5,14.8,30.23,North,360,0.0,0.0,89,0.00,,,0.00,Wunderground v.1.15,2013-01-03 12:55:00,
2013-01-03 08:00:00,17.4,14.7,30.23,North,360,0.0,0.0,89,0.00,,,0.00,Wunderground v.1.15,2013-01-03 13:00:00,
2013-01-03 08:10:00,17.3,14.6,30.23,North,360,0.0,0.0,89,0.00,,,0.00,Wunderground v.1.15,2013-01-03 13:10:00,
2013-01-03 08:15:00,17.4,15.0,30.23,North,360,0.0,0.0,90,0.00,,,0.00,Wunderground v.1.15,2013-01-03 13:15:00,
2013-01-03 08:20:00,17.6,15.2,30.24,North,360,0.0,0.0,90,0.00,,,0.00,Wunderground v.1.15,2013-01-03 13:20:00,
2013-01-03 08:25:00,17.9,15.5,30.24,North,360,0.0,0.0,90,0.00,,,0.00,Wunderground v.1.15,2013-01-03 13:25:00,
2013-01-03 08:35:00,19.1,16.7,30.24,North,360,0.0,0.0,90,0.00,,,0.00,Wunderground v.1.15,2013-01-03 13:35:00,
2013-01-03 08:40:00,20.1,17.1,30.24,North,360,0.0,0.0,88,0.00,,,0.00,Wunderground v.1.15,2013-01-03 13:40:00,
2013-01-03 08:45:00,21.1,17.6,30.24,North,360,0.0,0.0,86,0.00,,,0.00,Wunderground v.1.15,2013-01-03 13:45:00,
2013-01-03 08:50:00,22.3,18.7,30.24,North,360,0.0,0.0,86,0.00,,,0.00,Wunderground v.1.15,2013-01-03 13:50:00,
2013-01-03 08:55:00,23.3,18.9,30.25,North,360,0.0,0.0,83,0.00,,,0.00,Wunderground v.1.15,2013-01-03 13:55:00,
2013-01-03 09:00:00,24.0,18.7,30.25,North,360,0.0,0.0,80,0.00,,,0.00,Wunderground v.1.15,2013-01-03 14:00:00,
2013-01-03 09:10:00,24.7,17.6,30.25,South,180,1.0,3.0,74,0.00,,,0.00,Wunderground v.1.15,2013-01-03 14:10:00,
2013-01-03 09:15:00,24.8,17.7,30.25,South,181,2.0,3.0,74,0.00,,,0.00,Wunderground v.1.15,2013-01-03 14:15:00,
2013-01-03 09:20:00,24.9,17.5,30.25,South,182,2.0,2.0,73,0.00,,,0.00,Wunderground v.1.15,2013-01-03 14:20:00,
2013-01-03 09:25:00,25.3,18.5,30.25,South,182,1.0,2.0,75,0.00,,,0.00,Wunderground v.1.15,2013-01-03 14:25:00,
2013-01-03 09:30:00,25.9,18.7,30.25,South,182,0.0,0.0,74,0.00,,,0.00,Wunderground v.1.15,2013-01-03 14:30:00,
2013-01-03 09:40:00,26.9,18.1,30.24,South,188,2.0,2.0,69,0.00,,,0.00,Wunderground v.1.15,2013-01-03 14:40:00,
2013-01-03 09:45:00,27.2,18.0,30.24,SSW,210,3.0,3.0,68,0.00,,,0.00,Wunderground v.1.15,2013-01-03 14:45:00,
2013-01-03 09:50:00,27.4,17.9,30.24,SSW,211,3.0,4.0,67,0.00,,,0.00,Wunderground v.1.15,2013-01-03 14:50:00,
2013-01-03 09:55:00,27.6,17.4,30.24,SSW,209,3.0,4.0,65,0.00,,,0.00,Wunderground v.1.15,2013-01-03 14:55:00,
2013-01-03 10:00:00,28.0,17.7,30.24,SW,219,3.0,3.0,65,0.00,,,0.00,Wunderground v.1.15,2013-01-03 15:00:00,
2013-01-03 10:10:00,28.6,17.6,30.24,South,188,4.0,4.0,63,0.00,,,0.00,Wunderground v.1.15,2013-01-03 15:10:00,
2013-01-03 10:15:00,28.9,17.5,30.24,SW,219,4.0,4.0,62,0.00,,,0.00,Wunderground v.1.15,2013-01-03 15:15:00,
2013-01-03 10:20:00,29.1,17.3,30.24,SW,215,5.0,5.0,61,0.00,,,0.00,Wunderground v.1.15,2013-01-03 15:20:00,
2013-01-03 10:25:00,29.4,17.6,30.24,SSW,196,5.0,5.0,61,0.00,,,0.00,Wunderground v.1.15,2013-01-03 15:25:00,
2013-01-03 10:30:00,29.6,17.4,30.24,SW,221,5.0,5.0,60,0.00,,,0.00,Wunderground v.1.15,2013-01-03 15:30:00,
2013-01-03 10:35:00,29.4,16.8,30.24,SSW,198,5.0,7.0,59,0.00,,,0.00,Wunderground v.1.15,2013-01-03 15:35:00,
2013-01-03 10:45:00,29.8,17.2,30.23,SW,230,5.0,8.0,59,0.00,,,0.00,Wunderground v.1.15,2013-01-03 15:45:00,
2013-01-03 10:50:00,30.2,17.6,30.23,SSE,159,4.0,6.0,59,0.00,,,0.00,Wunderground v.1.15,2013-01-03 15:50:00,
2013-01-03 10:55:00,30.3,17.7,30.23,SW,221,4.0,6.0,59,0.00,,,0.00,Wunderground v.1.15,2013-01-03 15:55:00,
2013-01-03 11:00:00,30.3,17.7,30.23,WSW,243,5.0,5.0,59,0.00,,,0.00,Wunderground v.1.15,2013-01-03 16:00:00,
2013-01-03 11:10:00,31.3,18.6,30.22,SW,219,2.0,4.0,59,0.00,,,0.00,Wunderground v.1.15,2013-01-03 16:10:00,
2013-01-03 11:15:00,31.2,18.1,30.22,SSE,157,3.0,5.0,58,0.00,,,0.00,Wunderground v.1.15,2013-01-03 16:15:00,
2013-01-03 11:20:00,31.2,18.1,30.21,SSW,195,4.0,4.0,58,0.00,,,0.00,Wunderground v.1.15,2013-01-03 16:20:00,
2013-01-03 11:25:00,31.1,18.0,30.21,WSW,255,4.0,6.0,58,0.00,,,0.00,Wunderground v.1.15,2013-01-03 16:25:00,
2013-01-03 11:30:00,31.5,18.8,30.21,SSW,202,4.0,4.0,59,0.00,,,0.00,Wunderground v.1.15,2013-01-03 16:30:00,
2013-01-03 11:35:00,31.9,18.8,30.21,SSE,160,4.0,4.0,58,0.00,,,0.00,Wunderground v.1.15,2013-01-03 16:35:00,
2013-01-03 11:40:00,32.0,19.3,30.20,SSW,198,4.0,4.0,59,0.00,,,0.00,Wunderground v.1.15,2013-01-03 16:40:00,
2013-01-03 11:50:00,31.8,19.1,30.20,SSW,197,4.0,6.0,59,0.00,,,0.00,Wunderground v.1.15,2013-01-03 16:50:00,
2013-01-03 11:55:00,31.5,18.8,30.19,South,176,4.0,6.0,59,0.00,,,0.00,Wunderground v.1.15,2013-01-03 16:55:00,
2013-01-03 12:00:00,32.1,20.2,30.19,SW,232,4.0,7.0,61,0.00,,,0.00,Wunderground v.1.15,2013-01-03 17:00:00,
2013-01-03 12:10:00,32.2,19.1,30.18,South,188,5.0,5.0,58,0.00,,,0.00,Wunderground v.1.15,2013-01-03 17:10:00,
2013-01-03 12:20:00,32.6,18.6,30.18,SW,214,4.0,4.0,56,0.00,,,0.00,Wunderground v.1.15,2013-01-03 17:20:00,
2013-01-03 12:25:00,33.1,19.9,30.17,SSE,167,3.0,4.0,58,0.00,,,0.00,Wunderground v.1.15,2013-01-03 17:25:00,
2013-01-03 12:30:00,33.3,18.9,30.17,SSW,205,4.0,5.0,55,0.00,,,0.00,Wunderground v.1.15,2013-01-03 17:30:00,
2013-01-03 12:35:00,33.5,19.5,30.17,SSW,202,4.0,7.0,56,0.00,,,0.00,Wunderground v.1.15,2013-01-03 17:35:00,
2013-01-03 12:40:00,33.7,19.2,30.17,WSW,257,4.0,4.0,55,0.00,,,0.00,Wunderground v.1.15,2013-01-03 17:40:00,
2013-01-03 12:45:00,34.1,19.2,30.16,SSW,207,4.0,4.0,54,0.00,,,0.00,Wunderground v.1.15,2013-01-03 17:45:00,
2013-01-03 12:55:00,34.7,19.3,30.16,SSW,205,4.0,7.0,53,0.00,,,0.00,Wunderground v.1.15,2013-01-03 17:55:00,
2013-01-03 13:00:00,34.5,18.7,30.16,SW,222,4.0,4.0,52,0.00,,,0.00,Wunderground v.1.15,2013-01-03 18:00:00,
2013-01-03 13:10:00,35.6,19.7,30.15,SSW,196,4.0,4.0,52,0.00,,,0.00,Wunderground v.1.15,2013-01-03 18:10:00,
2013-01-03 13:15:00,35.5,18.7,30.16,WSW,237,4.0,4.0,50,0.00,,,0.00,Wunderground v.1.15,2013-01-03 18:15:00,
2013-01-03 13:20:00,35.5,19.1,30.16,West,269,2.0,2.0,51,0.00,,,0.00,Wunderground v.1.15,2013-01-03 18:20:00,
2013-01-03 13:25:00,36.4,19.0,30.15,West,277,3.0,9.0,49,0.00,,,0.00,Wunderground v.1.15,2013-01-03 18:25:00,
2013-01-03 13:30:00,35.7,17.9,30.15,SW,215,6.0,6.0,48,0.00,,,0.00,Wunderground v.1.15,2013-01-03 18:30:00,
2013-01-03 13:35:00,35.3,18.0,30.14,WSW,237,6.0,6.0,49,0.00,,,0.00,Wunderground v.1.15,2013-01-03 18:35:00,
2013-01-03 13:40:00,36.0,18.7,30.14,West,273,5.0,10.0,49,0.00,,,0.00,Wunderground v.1.15,2013-01-03 18:40:00,
2013-01-03 13:45:00,37.1,18.7,30.14,West,276,6.0,10.0,47,0.00,,,0.00,Wunderground v.1.15,2013-01-03 18:45:00,
2013-01-03 13:55:00,36.7,17.8,30.14,SW,228,7.0,8.0,46,0.00,,,0.00,Wunderground v.1.15,2013-01-03 18:55:00,
2013-01-03 14:00:00,36.5,18.6,30.14,SSE,163,5.0,5.0,48,0.00,,,0.00,Wunderground v.1.15,2013-01-03 19:00:00,
2013-01-03 14:10:00,37.7,19.3,30.14,WSW,242,4.0,4.0,47,0.00,,,0.00,Wunderground v.1.15,2013-01-03 19:10:00,
2013-01-03 14:15:00,37.8,19.3,30.14,WNW,288,4.0,4.0,47,0.00,,,0.00,Wunderground v.1.15,2013-01-03 19:15:00,
2013-01-03 14:55:00,37.4,19.0,30.14,SW,234,4.0,6.0,47,0.00,,,0.00,Wunderground v.1.15,2013-01-03 19:55:00,
2013-01-03 15:00:00,37.2,18.8,30.14,SW,219,4.0,4.0,47,0.00,,,0.00,Wunderground v.1.15,2013-01-03 20:00:00,
2013-01-03 15:10:00,37.0,18.1,30.14,SSW,207,4.0,5.0,46,0.00,,,0.00,Wunderground v.1.15,2013-01-03 20:10:00,
2013-01-03 15:15:00,36.6,18.7,30.14,SSW,209,4.0,7.0,48,0.00,,,0.00,Wunderground v.1.15,2013-01-03 20:15:00,
2013-01-03 15:20:00,36.3,18.5,30.14,WSW,240,5.0,5.0,48,0.00,,,0.00,Wunderground v.1.15,2013-01-03 20:20:00,
2013-01-03 15:25:00,36.5,19.1,30.14,SSW,213,4.0,5.0,49,0.00,,,0.00,Wunderground v.1.15,2013-01-03 20:25:00,
2013-01-03 15:30:00,36.9,19.5,30.14,WSW,243,3.0,3.0,49,0.00,,,0.00,Wunderground v.1.15,2013-01-03 20:30:00,
2013-01-03 15:40:00,36.8,18.9,30.13,SW,225,4.0,6.0,48,0.00,,,0.00,Wunderground v.1.15,2013-01-03 20:40:00,
2013-01-03 15:45:00,36.6,18.7,30.14,SW,220,4.0,6.0,48,0.00,,,0.00,Wunderground v.1.15,2013-01-03 20:45:00,
2013-01-03 15:50:00,36.8,19.4,30.14,SSW,205,4.0,7.0,49,0.00,,,0.00,Wunderground v.1.15,2013-01-03 20:50:00,
2013-01-03 15:55:00,36.5,19.1,30.14,SW,221,4.0,7.0,49,0.00,,,0.00,Wunderground v.1.15,2013-01-03 20:55:00,
2013-01-03 16:00:00,36.5,18.6,30.14,SW,229,5.0,5.0,48,0.00,,,0.00,Wunderground v.1.15,2013-01-03 21:00:00,
2013-01-03 16:10:00,36.4,18.6,30.14,SW,214,4.0,6.0,48,0.00,,,0.00,Wunderground v.1.15,2013-01-03 21:10:00,
2013-01-03 16:15:00,36.4,18.6,30.14,SW,217,3.0,6.0,48,0.00,,,0.00,Wunderground v.1.15,2013-01-03 21:15:00,
2013-01-03 16:20:00,36.6,19.2,30.14,SW,224,2.0,3.0,49,0.00,,,0.00,Wunderground v.1.15,2013-01-03 21:20:00,
2013-01-03 16:25:00,36.6,18.7,30.15,WSW,246,2.0,3.0,48,0.00,,,0.00,Wunderground v.1.15,2013-01-03 21:25:00,
2013-01-03 16:30:00,36.5,18.6,30.15,SW,234,2.0,3.0,48,0.00,,,0.00,Wunderground v.1.15,2013-01-03 21:30:00,
2013-01-03 16:35:00,36.4,19.0,30.15,SW,222,2.0,3.0,49,0.00,,,0.00,Wunderground v.1.15,2013-01-03 21:35:00,
2013-01-03 16:40:00,35.9,18.6,30.15,SSW,202,1.0,1.0,49,0.00,,,0.00,Wunderground v.1.15,2013-01-03 21:40:00,
2013-01-03 16:45:00,35.3,18.5,30.15,SSW,202,1.0,1.0,50,0.00,,,0.00,Wunderground v.1.15,2013-01-03 21:45:00,
2013-01-03 16:55:00,34.5,19.1,30.15,SSW,202,0.0,0.0,53,0.00,,,0.00,Wunderground v.1.15,2013-01-03 21:55:00,
2013-01-03 17:00:00,34.0,19.1,30.15,SSW,202,0.0,0.0,54,0.00,,,0.00,Wunderground v.1.15,2013-01-03 22:00:00,
2013-01-03 17:10:00,32.9,18.9,30.15,SSW,202,0.0,0.0,56,0.00,,,0.00,Wunderground v.1.15,2013-01-03 22:10:00,
2013-01-03 17:20:00,32.0,20.1,30.16,SSW,202,0.0,0.0,61,0.00,,,0.00,Wunderground v.1.15,2013-01-03 22:20:00,
2013-01-03 17:25:00,31.4,20.2,30.16,SSW,202,0.0,0.0,63,0.00,,,0.00,Wunderground v.1.15,2013-01-03 22:25:00,
2013-01-03 17:30:00,30.9,20.5,30.15,SSW,202,0.0,0.0,65,0.00,,,0.00,Wunderground v.1.15,2013-01-03 22:30:00,
2013-01-03 17:35:00,30.0,20.7,30.15,SSW,202,0.0,0.0,68,0.00,,,0.00,Wunderground v.1.15,2013-01-03 22:35:00,
2013-01-03 17:40:00,29.4,20.8,30.15,SSW,202,0.0,0.0,70,0.00,,,0.00,Wunderground v.1.15,2013-01-03 22:40:00,
2013-01-03 17:50:00,28.6,20.7,30.16,SSW,202,0.0,0.0,72,0.00,,,0.00,Wunderground v.1.15,2013-01-03 22:50:00,
2013-01-03 17:55:00,28.0,20.5,30.16,SSW,202,0.0,0.0,73,0.00,,,0.00,Wunderground v.1.15,2013-01-03 22:55:00,
2013-01-03 18:00:00,27.6,20.7,30.16,SSW,202,0.0,0.0,75,0.00,,,0.00,Wunderground v.1.15,2013-01-03 23:00:00,
2013-01-03 18:10:00,27.1,20.5,30.16,SSW,202,0.0,0.0,76,0.00,,,0.00,Wunderground v.1.15,2013-01-03 23:10:00,
2013-01-03 18:15:00,26.8,19.6,30.16,SSW,202,0.0,0.0,74,0.00,,,0.00,Wunderground v.1.15,2013-01-03 23:15:00,
2013-01-03 18:20:00,26.5,20.0,30.16,SSW,202,0.0,0.0,76,0.00,,,0.00,Wunderground v.1.15,2013-01-03 23:20:00,
2013-01-03 18:25:00,26.2,20.0,30.16,SSW,202,0.0,0.0,77,0.00,,,0.00,Wunderground v.1.15,2013-01-03 23:25:00,
2013-01-03 18:30:00,26.0,20.1,30.16,SSW,202,0.0,0.0,78,0.00,,,0.00,Wunderground v.1.15,2013-01-03 23:30:00,
2013-01-03 18:40:00,25.6,20.0,30.16,SSW,202,0.0,0.0,79,0.00,,,0.00,Wunderground v.1.15,2013-01-03 23:40:00,
2013-01-03 18:45:00,25.4,19.8,30.16,SSW,202,0.0,0.0,79,0.00,,,0.00,Wunderground v.1.15,2013-01-03 23:45:00,
2013-01-03 18:50:00,25.3,19.7,30.16,SSW,202,0.0,0.0,79,0.00,,,0.00,Wunderground v.1.15,2013-01-03 23:50:00,
2013-01-03 18:55:00,25.3,19.7,30.16,SSW,202,0.0,0.0,79,0.00,,,0.00,Wunderground v.1.15,2013-01-03 23:55:00,
2013-01-03 19:00:00,25.2,20.2,30.16,SSW,202,0.0,0.0,81,0.00,,,0.00,Wunderground v.1.15,2013-01-04 00:00:00,
2013-01-03 19:10:00,25.2,19.9,30.16,SSW,202,0.0,0.0,80,0.00,,,0.00,Wunderground v.1.15,2013-01-04 00:10:00,
2013-01-03 19:15:00,25.3,19.7,30.16,SSW,202,0.0,0.0,79,0.00,,,0.00,Wunderground v.1.15,2013-01-04 00:15:00,
2013-01-03 19:25:00,25.8,19.6,30.17,SSW,203,0.0,2.0,77,0.00,,,0.00,Wunderground v.1.15,2013-01-04 00:25:00,
2013-01-03 19:30:00,26.0,19.5,30.17,SSW,202,0.0,1.0,76,0.00,,,0.00,Wunderground v.1.15,2013-01-04 00:30:00,
2013-01-03 19:35:00,26.2,19.7,30.17,SSW,203,1.0,1.0,76,0.00,,,0.00,Wunderground v.1.15,2013-01-04 00:35:00,
2013-01-03 19:40:00,26.1,19.9,30.17,SSW,203,1.0,1.0,77,0.00,,,0.00,Wunderground v.1.15,2013-01-04 00:40:00,
2013-01-03 19:45:00,26.4,19.9,30.17,SSW,203,0.0,1.0,76,0.00,,,0.00,Wunderground v.1.15,2013-01-04 00:45:00,
2013-01-03 19:50:00,26.3,20.1,30.17,SSW,203,0.0,0.0,77,0.00,,,0.00,Wunderground v.1.15,2013-01-04 00:50:00,
2013-01-03 20:00:00,26.1,19.3,30.17,SSW,202,0.0,0.0,75,0.00,,,0.00,Wunderground v.1.15,2013-01-04 01:00:00,
2013-01-03 20:10:00,26.7,19.8,30.17,West,273,1.0,3.0,75,0.00,,,0.00,Wunderground v.1.15,2013-01-04 01:10:00,
2013-01-03 20:15:00,27.0,19.8,30.17,SSE,150,2.0,3.0,74,0.00,,,0.00,Wunderground v.1.15,2013-01-04 01:15:00,
2013-01-03 20:20:00,27.4,19.9,30.16,West,270,2.0,2.0,73,0.00,,,0.00,Wunderground v.1.15,2013-01-04 01:20:00,
2013-01-03 20:30:00,28.3,20.1,30.16,South,169,1.0,1.0,71,0.00,,,0.00,Wunderground v.1.15,2013-01-04 01:30:00,
2013-01-03 20:35:00,28.5,20.0,30.16,South,180,1.0,1.0,70,0.00,,,0.00,Wunderground v.1.15,2013-01-04 01:35:00,
2013-01-03 20:40:00,28.7,19.8,30.16,South,177,2.0,4.0,69,0.00,,,0.00,Wunderground v.1.15,2013-01-04 01:40:00,
2013-01-03 20:45:00,29.7,20.1,30.16,WSW,243,3.0,4.0,67,0.00,,,0.00,Wunderground v.1.15,2013-01-04 01:45:00,
2013-01-03 20:50:00,30.4,20.4,30.16,SSE,167,2.0,2.0,66,0.00,,,0.00,Wunderground v.1.15,2013-01-04 01:50:00,
2013-01-03 20:55:00,30.4,20.4,30.17,NW,309,2.0,2.0,66,0.00,,,0.00,Wunderground v.1.15,2013-01-04 01:55:00,
2013-01-03 21:00:00,30.1,20.1,30.17,NW,309,2.0,2.0,66,0.00,,,0.00,Wunderground v.1.15,2013-01-04 02:00:00,
2013-01-03 21:10:00,30.1,19.7,30.17,WSW,241,1.0,1.0,65,0.00,,,0.00,Wunderground v.1.15,2013-01-04 02:10:00,
2013-01-03 21:15:00,30.2,19.8,30.17,WSW,241,0.0,1.0,65,0.00,,,0.00,Wunderground v.1.15,2013-01-04 02:15:00,
2013-01-03 21:20:00,29.9,19.9,30.17,WSW,243,0.0,3.0,66,0.00,,,0.00,Wunderground v.1.15,2013-01-04 02:20:00,
2013-01-03 21:25:00,29.8,19.8,30.17,WNW,297,1.0,3.0,66,0.00,,,0.00,Wunderground v.1.15,2013-01-04 02:25:00,
2013-01-03 21:35:00,29.6,20.0,30.17,West,267,0.0,3.0,67,0.00,,,0.00,Wunderground v.1.15,2013-01-04 02:35:00,
2013-01-03 21:40:00,30.2,20.2,30.17,SSW,202,1.0,1.0,66,0.00,,,0.00,Wunderground v.1.15,2013-01-04 02:40:00,
2013-01-03 21:45:00,30.3,19.9,30.17,SSW,205,1.0,3.0,65,0.00,,,0.00,Wunderground v.1.15,2013-01-04 02:45:00,
2013-01-03 21:50:00,32.5,20.5,30.17,SSE,151,2.0,6.0,61,0.00,,,0.00,Wunderground v.1.15,2013-01-04 02:50:00,
2013-01-03 21:55:00,33.1,19.9,30.17,WSW,248,3.0,6.0,58,0.00,,,0.00,Wunderground v.1.15,2013-01-04 02:55:00,
2013-01-03 22:00:00,34.1,20.4,30.17,WSW,245,5.0,5.0,57,0.00,,,0.00,Wunderground v.1.15,2013-01-04 03:00:00,
2013-01-03 22:10:00,35.1,20.5,30.16,WSW,258,10.0,16.0,55,0.00,,,0.00,Wunderground v.1.15,2013-01-04 03:10:00,
2013-01-03 22:15:00,35.0,20.9,30.16,West,266,12.0,16.0,56,0.00,,,0.00,Wunderground v.1.15,2013-01-04 03:15:00,
2013-01-03 22:20:00,34.9,20.4,30.15,West,271,13.0,13.0,55,0.00,,,0.00,Wunderground v.1.15,2013-01-04 03:20:00,
2013-01-03 22:25:00,34.8,20.7,30.14,West,267,14.0,14.0,56,0.00,,,0.00,Wunderground v.1.15,2013-01-04 03:25:00,
2013-01-03 22:30:00,35.0,20.4,30.14,West,278,14.0,26.0,55,0.00,,,0.00,Wunderground v.1.15,2013-01-04 03:30:00,
2013-01-03 22:35:00,35.2,20.6,30.14,West,268,14.0,26.0,55,0.00,,,0.00,Wunderground v.1.15,2013-01-04 03:35:00,
2013-01-03 22:40:00,35.2,20.6,30.15,WSW,252,12.0,12.0,55,0.00,,,0.00,Wunderground v.1.15,2013-01-04 03:40:00,
2013-01-03 22:45:00,35.2,20.6,30.15,WSW,246,9.0,12.0,55,0.00,,,0.00,Wunderground v.1.15,2013-01-04 03:45:00,
2013-01-03 22:50:00,35.1,20.5,30.15,WNW,285,6.0,14.0,55,0.00,,,0.00,Wunderground v.1.15,2013-01-04 03:50:00,
2013-01-03 22:55:00,35.3,20.7,30.15,SW,214,7.0,14.0,55,0.00,,,0.00,Wunderground v.1.15,2013-01-04 03:55:00,
2013-01-03 23:00:00,35.2,20.6,30.15,NE,38,8.0,8.0,55,0.00,,,0.00,Wunderground v.1.15,2013-01-04 04:00:00,
2013-01-03 23:10:00,35.0,20.4,30.16,SE,140,5.0,7.0,55,0.00,,,0.00,Wunderground v.1.15,2013-01-04 04:10:00,
2013-01-03 23:15:00,34.4,20.3,30.16,SSE,158,6.0,7.0,56,0.00,,,0.00,Wunderground v.1.15,2013-01-04 04:15:00,
2013-01-03 23:20:00,34.1,20.4,30.16,South,180,6.0,6.0,57,0.00,,,0.00,Wunderground v.1.15,2013-01-04 04:20:00,
2013-01-03 23:25:00,33.8,20.6,30.16,SSE,148,4.0,6.0,58,0.00,,,0.00,Wunderground v.1.15,2013-01-04 04:25:00,
2013-01-03 23:30:00,33.7,20.9,30.16,South,181,2.0,2.0,59,0.00,,,0.00,Wunderground v.1.15,2013-01-04 04:30:00,
2013-01-03 23:35:00,33.4,20.6,30.16,SSW,210,1.0,3.0,59,0.00,,,0.00,Wunderground v.1.15,2013-01-04 04:35:00,
2013-01-03 23:45:00,34.7,21.0,30.17,SW,219,6.0,6.0,57,0.00,,,0.00,Wunderground v.1.15,2013-01-04 04:45:00,
2013-01-03 23:50:00,34.9,20.8,30.17,SW,236,5.0,5.0,56,0.00,,,0.00,Wunderground v.1.15,2013-01-04 04:50:00,
2013-01-03 23:55:00,35.1,21.0,30.17,SW,234,5.0,6.0,56,0.00,,,0.00,Wunderground v.1.15,2013-01-04 04:55:00,